Year,Month,Day,Hour,Minute,Value (Times are PST for temperature in C)
2011,05,08,00,00,6.30
2011,05,08,00,01,6.30
2011,05,08,00,02,6.40
2011,05,08,00,03,6.40
2011,05,08,00,04,6.40
2011,05,08,00,05,6.40
2011,05,08,00,06,6.40
2011,05,08,00,07,6.40
2011,05,08,00,08,6.40
2011,05,08,00,09,6.40
2011,05,08,00,10,6.40
2011,05,08,00,11,6.40
2011,05,08,00,12,6.40
2011,05,08,00,13,6.40
2011,05,08,00,14,6.50
2011,05,08,00,15,6.50
2011,05,08,00,16,6.50
2011,05,08,00,17,6.60
2011,05,08,00,18,6.60
2011,05,08,00,19,6.50
2011,05,08,00,20,6.50
2011,05,08,00,21,6.50
2011,05,08,00,22,6.50
2011,05,08,00,23,6.50
2011,05,08,00,24,6.50
2011,05,08,00,25,6.50
2011,05,08,00,26,6.50
2011,05,08,00,27,6.50
2011,05,08,00,28,6.50
2011,05,08,00,29,6.50
2011,05,08,00,30,6.40
2011,05,08,00,31,6.40
2011,05,08,00,32,6.40
2011,05,08,00,33,6.40
2011,05,08,00,34,6.40
2011,05,08,00,35,6.40
2011,05,08,00,36,6.40
2011,05,08,00,37,6.40
2011,05,08,00,38,6.30
2011,05,08,00,39,6.30
2011,05,08,00,40,6.30
2011,05,08,00,41,6.30
2011,05,08,00,42,6.30
2011,05,08,00,43,6.30
2011,05,08,00,44,6.30
2011,05,08,00,45,6.30
2011,05,08,00,46,6.30
2011,05,08,00,47,6.30
2011,05,08,00,48,6.30
2011,05,08,00,49,6.20
2011,05,08,00,50,6.20
2011,05,08,00,51,6.20
2011,05,08,00,52,6.20
2011,05,08,00,53,6.20
2011,05,08,00,54,6.20
2011,05,08,00,55,6.20
2011,05,08,00,56,6.20
2011,05,08,00,57,6.20
2011,05,08,00,58,6.10
2011,05,08,00,59,6.10
2011,05,08,01,00,6.10
2011,05,08,01,01,6.10
2011,05,08,01,02,6.10
2011,05,08,01,03,6.00
2011,05,08,01,04,6.00
2011,05,08,01,05,6.00
2011,05,08,01,06,6.00
2011,05,08,01,07,6.00
2011,05,08,01,08,6.00
2011,05,08,01,09,6.00
2011,05,08,01,10,6.00
2011,05,08,01,11,5.90
2011,05,08,01,12,5.90
2011,05,08,01,13,5.90
2011,05,08,01,14,5.90
2011,05,08,01,15,5.90
2011,05,08,01,16,5.90
2011,05,08,01,17,5.90
2011,05,08,01,18,5.90
2011,05,08,01,19,5.90
2011,05,08,01,20,5.80
2011,05,08,01,21,5.80
2011,05,08,01,22,5.90
2011,05,08,01,23,5.90
2011,05,08,01,24,5.90
2011,05,08,01,25,5.90
2011,05,08,01,26,5.90
2011,05,08,01,27,5.90
2011,05,08,01,28,5.90
2011,05,08,01,29,5.90
2011,05,08,01,30,5.90
2011,05,08,01,31,5.90
2011,05,08,01,32,5.90
2011,05,08,01,33,6.00
2011,05,08,01,34,6.00
2011,05,08,01,35,6.00
2011,05,08,01,36,6.00
2011,05,08,01,37,6.00
2011,05,08,01,38,6.00
2011,05,08,01,39,6.00
2011,05,08,01,40,6.00
2011,05,08,01,41,6.00
2011,05,08,01,42,6.00
2011,05,08,01,43,6.00
2011,05,08,01,44,6.10
2011,05,08,01,45,6.10
2011,05,08,01,46,6.10
2011,05,08,01,47,6.10
2011,05,08,01,48,6.10
2011,05,08,01,49,6.10
2011,05,08,01,50,6.10
2011,05,08,01,51,6.10
2011,05,08,01,52,6.10
2011,05,08,01,53,6.20
2011,05,08,01,54,6.20
2011,05,08,01,55,6.20
2011,05,08,01,56,6.20
2011,05,08,01,57,6.20
2011,05,08,01,58,6.20
2011,05,08,01,59,6.20
2011,05,08,02,00,6.20
2011,05,08,02,01,6.20
2011,05,08,02,02,6.20
2011,05,08,02,03,6.20
2011,05,08,02,04,6.20
2011,05,08,02,05,6.20
2011,05,08,02,06,6.20
2011,05,08,02,07,6.20
2011,05,08,02,08,6.20
2011,05,08,02,09,6.20
2011,05,08,02,10,6.20
2011,05,08,02,11,6.10
2011,05,08,02,12,6.10
2011,05,08,02,13,6.10
2011,05,08,02,14,6.10
2011,05,08,02,15,6.10
2011,05,08,02,16,6.10
2011,05,08,02,17,6.10
2011,05,08,02,18,6.00
2011,05,08,02,19,6.00
2011,05,08,02,20,6.00
2011,05,08,02,21,6.00
2011,05,08,02,22,6.00
2011,05,08,02,23,5.90
2011,05,08,02,24,5.90
2011,05,08,02,25,5.90
2011,05,08,02,26,5.90
2011,05,08,02,27,5.90
2011,05,08,02,28,5.90
2011,05,08,02,29,5.80
2011,05,08,02,30,5.80
2011,05,08,02,31,5.80
2011,05,08,02,32,5.80
2011,05,08,02,33,5.80
2011,05,08,02,34,5.80
2011,05,08,02,35,5.80
2011,05,08,02,36,5.80
2011,05,08,02,37,5.80
2011,05,08,02,38,5.80
2011,05,08,02,39,5.80
2011,05,08,02,40,5.90
2011,05,08,02,41,5.90
2011,05,08,02,42,5.90
2011,05,08,02,43,5.90
2011,05,08,02,44,5.90
2011,05,08,02,45,5.90
2011,05,08,02,46,5.90
2011,05,08,02,47,5.90
2011,05,08,02,48,5.90
2011,05,08,02,49,5.90
2011,05,08,02,50,5.90
2011,05,08,02,51,6.00
2011,05,08,02,52,6.00
2011,05,08,02,53,6.00
2011,05,08,02,54,6.00
2011,05,08,02,55,6.10
2011,05,08,02,56,6.10
2011,05,08,02,57,6.10
2011,05,08,02,58,6.10
2011,05,08,02,59,6.10
2011,05,08,03,00,6.10
2011,05,08,03,01,6.10
2011,05,08,03,02,6.10
2011,05,08,03,03,6.10
2011,05,08,03,04,6.10
2011,05,08,03,05,6.10
2011,05,08,03,06,6.20
2011,05,08,03,07,6.20
2011,05,08,03,08,6.30
2011,05,08,03,09,6.30
2011,05,08,03,10,6.30
2011,05,08,03,11,6.30
2011,05,08,03,12,6.30
2011,05,08,03,13,6.40
2011,05,08,03,14,6.40
2011,05,08,03,15,6.40
2011,05,08,03,16,6.40
2011,05,08,03,17,6.40
2011,05,08,03,18,6.40
2011,05,08,03,19,6.30
2011,05,08,03,20,6.30
2011,05,08,03,21,6.30
2011,05,08,03,22,6.40
2011,05,08,03,23,6.40
2011,05,08,03,24,6.40
2011,05,08,03,25,6.40
2011,05,08,03,26,6.40
2011,05,08,03,27,6.40
2011,05,08,03,28,6.30
2011,05,08,03,29,6.30
2011,05,08,03,30,6.30
2011,05,08,03,31,6.40
2011,05,08,03,32,6.40
2011,05,08,03,33,6.40
2011,05,08,03,34,6.40
2011,05,08,03,35,6.40
2011,05,08,03,36,6.50
2011,05,08,03,37,6.60
2011,05,08,03,38,6.60
2011,05,08,03,39,6.60
2011,05,08,03,40,6.60
2011,05,08,03,41,6.60
2011,05,08,03,42,6.60
2011,05,08,03,43,6.60
2011,05,08,03,44,6.70
2011,05,08,03,45,6.60
2011,05,08,03,46,6.60
2011,05,08,03,47,6.70
2011,05,08,03,48,6.70
2011,05,08,03,49,6.70
2011,05,08,03,50,6.70
2011,05,08,03,51,6.70
2011,05,08,03,52,6.70
2011,05,08,03,53,6.70
2011,05,08,03,54,6.70
2011,05,08,03,55,6.70
2011,05,08,03,56,6.70
2011,05,08,03,57,6.70
2011,05,08,03,58,6.70
2011,05,08,03,59,6.70
2011,05,08,04,00,6.70
2011,05,08,04,01,6.80
2011,05,08,04,02,6.80
2011,05,08,04,03,6.80
2011,05,08,04,04,6.80
2011,05,08,04,05,6.80
2011,05,08,04,06,6.80
2011,05,08,04,07,6.80
2011,05,08,04,08,6.80
2011,05,08,04,09,6.80
2011,05,08,04,10,6.80
2011,05,08,04,11,6.80
2011,05,08,04,12,6.80
2011,05,08,04,13,6.70
2011,05,08,04,14,6.70
2011,05,08,04,15,6.70
2011,05,08,04,16,6.60
2011,05,08,04,17,6.60
2011,05,08,04,18,6.60
2011,05,08,04,19,6.60
2011,05,08,04,20,6.50
2011,05,08,04,21,6.50
2011,05,08,04,22,6.50
2011,05,08,04,23,6.50
2011,05,08,04,24,6.50
2011,05,08,04,25,6.50
2011,05,08,04,26,6.40
2011,05,08,04,27,6.40
2011,05,08,04,28,6.40
2011,05,08,04,29,6.40
2011,05,08,04,30,6.40
2011,05,08,04,31,6.40
2011,05,08,04,32,6.40
2011,05,08,04,33,6.40
2011,05,08,04,34,6.40
2011,05,08,04,35,6.40
2011,05,08,04,36,6.40
2011,05,08,04,37,6.40
2011,05,08,04,38,6.30
2011,05,08,04,39,6.30
2011,05,08,04,40,6.30
2011,05,08,04,41,6.30
2011,05,08,04,42,6.30
2011,05,08,04,43,6.30
2011,05,08,04,44,6.30
2011,05,08,04,45,6.20
2011,05,08,04,46,6.20
2011,05,08,04,47,6.20
2011,05,08,04,48,6.20
2011,05,08,04,49,6.20
2011,05,08,04,50,6.20
2011,05,08,04,51,6.20
2011,05,08,04,52,6.20
2011,05,08,04,53,6.20
2011,05,08,04,54,6.20
2011,05,08,04,55,6.20
2011,05,08,04,56,6.20
2011,05,08,04,57,6.20
2011,05,08,04,58,6.20
2011,05,08,04,59,6.20
2011,05,08,05,00,6.30
2011,05,08,05,01,6.30
2011,05,08,05,02,6.30
2011,05,08,05,03,6.30
2011,05,08,05,04,6.30
2011,05,08,05,05,6.30
2011,05,08,05,06,6.30
2011,05,08,05,07,6.30
2011,05,08,05,08,6.30
2011,05,08,05,09,6.30
2011,05,08,05,10,6.30
2011,05,08,05,11,6.30
2011,05,08,05,12,6.30
2011,05,08,05,13,6.30
2011,05,08,05,14,6.30
2011,05,08,05,15,6.30
2011,05,08,05,16,6.30
2011,05,08,05,17,6.40
2011,05,08,05,18,6.40
2011,05,08,05,19,6.40
2011,05,08,05,20,6.40
2011,05,08,05,21,6.40
2011,05,08,05,22,6.50
2011,05,08,05,23,6.50
2011,05,08,05,24,6.50
2011,05,08,05,25,6.50
2011,05,08,05,26,6.60
2011,05,08,05,27,6.60
2011,05,08,05,28,6.60
2011,05,08,05,29,6.60
2011,05,08,05,30,6.60
2011,05,08,05,31,6.60
2011,05,08,05,32,6.60
2011,05,08,05,33,6.60
2011,05,08,05,34,6.60
2011,05,08,05,35,6.60
2011,05,08,05,36,6.50
2011,05,08,05,37,6.50
2011,05,08,05,38,6.50
2011,05,08,05,39,6.50
2011,05,08,05,40,6.50
2011,05,08,05,41,6.60
2011,05,08,05,42,6.60
2011,05,08,05,43,6.60
2011,05,08,05,44,6.60
2011,05,08,05,45,6.60
2011,05,08,05,46,6.60
2011,05,08,05,47,6.60
2011,05,08,05,48,6.60
2011,05,08,05,49,6.60
2011,05,08,05,50,6.60
2011,05,08,05,51,6.60
2011,05,08,05,52,6.60
2011,05,08,05,53,6.60
2011,05,08,05,54,6.60
2011,05,08,05,55,6.60
2011,05,08,05,56,6.60
2011,05,08,05,57,6.60
2011,05,08,05,58,6.60
2011,05,08,05,59,6.60
2011,05,08,06,00,6.60
2011,05,08,11,06,11.80
2011,05,08,11,07,11.70
2011,05,08,11,08,11.70
2011,05,08,11,09,11.70
2011,05,08,11,10,11.60
2011,05,08,11,11,11.60
2011,05,08,11,12,11.60
2011,05,08,11,13,11.60
2011,05,08,11,14,11.60
2011,05,08,11,15,11.60
2011,05,08,11,16,11.60
2011,05,08,11,17,11.50
2011,05,08,11,18,11.50
2011,05,08,11,19,11.50
2011,05,08,11,20,11.40
2011,05,08,11,21,11.40
2011,05,08,11,22,11.40
2011,05,08,11,23,11.40
2011,05,08,11,24,11.40
2011,05,08,11,25,11.40
2011,05,08,11,26,11.30
2011,05,08,11,27,11.30
2011,05,08,11,28,11.30
2011,05,08,11,29,11.30
2011,05,08,11,30,11.30
2011,05,08,11,31,11.30
2011,05,08,11,32,11.40
2011,05,08,11,33,11.40
2011,05,08,11,34,11.50
2011,05,08,11,35,11.50
2011,05,08,11,36,11.40
2011,05,08,11,37,11.40
2011,05,08,11,38,11.40
2011,05,08,11,39,11.40
2011,05,08,11,40,11.40
2011,05,08,11,41,11.40
2011,05,08,11,42,11.40
2011,05,08,11,43,11.40
2011,05,08,11,44,11.40
2011,05,08,11,45,11.50
2011,05,08,11,46,11.50
2011,05,08,11,47,11.60
2011,05,08,11,48,11.60
2011,05,08,11,49,11.60
2011,05,08,11,50,11.60
2011,05,08,11,51,11.60
2011,05,08,11,52,11.60
2011,05,08,11,53,11.60
2011,05,08,11,54,11.70
2011,05,08,11,55,11.80
2011,05,08,11,56,11.80
2011,05,08,11,57,11.90
2011,05,08,11,58,11.80
2011,05,08,11,59,11.80
2011,05,08,12,00,11.80
2011,05,08,12,01,11.90
2011,05,08,12,02,11.90
2011,05,08,12,03,12.00
2011,05,08,12,04,12.00
2011,05,08,12,05,12.10
2011,05,08,12,06,12.00
2011,05,08,12,07,12.10
2011,05,08,12,08,12.10
2011,05,08,12,09,12.30
2011,05,08,12,10,12.40
2011,05,08,12,11,12.50
2011,05,08,12,12,12.60
2011,05,08,12,13,12.60
2011,05,08,12,14,12.60
2011,05,08,12,15,12.50
2011,05,08,12,16,12.60
2011,05,08,12,17,12.60
2011,05,08,12,18,12.60
2011,05,08,12,19,12.60
2011,05,08,12,20,12.50
2011,05,08,12,21,12.40
2011,05,08,12,22,12.30
2011,05,08,12,23,12.30
2011,05,08,12,24,12.20
2011,05,08,12,25,12.20
2011,05,08,12,26,12.20
2011,05,08,12,27,12.20
2011,05,08,12,28,12.30
2011,05,08,12,29,12.30
2011,05,08,12,30,12.40
2011,05,08,12,31,12.50
2011,05,08,12,32,12.40
2011,05,08,12,33,12.40
2011,05,08,12,34,12.30
2011,05,08,12,35,12.40
2011,05,08,12,36,12.50
2011,05,08,12,37,12.60
2011,05,08,12,38,12.70
2011,05,08,12,39,12.70
2011,05,08,12,40,12.80
2011,05,08,12,41,12.80
2011,05,08,12,42,12.80
2011,05,08,12,43,12.80
2011,05,08,12,44,12.80
2011,05,08,12,45,12.80
2011,05,08,12,46,12.80
2011,05,08,12,47,12.80
2011,05,08,12,48,12.90
2011,05,08,12,49,12.90
2011,05,08,12,50,13.00
2011,05,08,12,51,13.10
2011,05,08,12,52,13.10
2011,05,08,12,53,13.10
2011,05,08,12,54,13.10
2011,05,08,12,55,13.10
2011,05,08,12,56,13.10
2011,05,08,12,57,13.20
2011,05,08,12,58,13.20
2011,05,08,12,59,13.10
2011,05,08,13,00,13.10
2011,05,08,13,01,13.20
2011,05,08,13,02,13.20
2011,05,08,13,03,13.10
2011,05,08,13,04,13.10
2011,05,08,13,05,13.20
2011,05,08,13,06,13.30
2011,05,08,13,07,13.20
2011,05,08,13,08,13.20
2011,05,08,13,09,13.10
2011,05,08,13,10,13.10
2011,05,08,13,11,13.00
2011,05,08,13,12,13.00
2011,05,08,13,13,12.90
2011,05,08,13,14,12.90
2011,05,08,13,15,12.90
2011,05,08,13,16,12.90
2011,05,08,13,17,12.80
2011,05,08,13,18,12.80
2011,05,08,13,19,12.90
2011,05,08,13,20,12.90
2011,05,08,13,21,12.90
2011,05,08,13,22,12.90
2011,05,08,13,23,13.00
2011,05,08,13,24,13.00
2011,05,08,13,25,13.10
2011,05,08,13,26,13.10
2011,05,08,13,27,13.10
2011,05,08,13,28,13.10
2011,05,08,13,29,13.20
2011,05,08,13,30,13.20
2011,05,08,13,31,13.20
2011,05,08,13,32,13.20
2011,05,08,13,33,13.30
2011,05,08,13,34,13.30
2011,05,08,13,35,13.40
2011,05,08,13,36,13.40
2011,05,08,13,37,13.40
2011,05,08,13,38,13.40
2011,05,08,13,39,13.40
2011,05,08,13,40,13.40
2011,05,08,13,41,13.40
2011,05,08,13,42,13.40
2011,05,08,13,43,13.50
2011,05,08,13,44,13.60
2011,05,08,13,45,13.70
2011,05,08,13,46,13.70
2011,05,08,13,47,13.70
2011,05,08,13,48,13.80
2011,05,08,13,49,13.80
2011,05,08,13,50,13.80
2011,05,08,13,51,13.70
2011,05,08,13,52,13.70
2011,05,08,13,53,13.70
2011,05,08,13,54,13.80
2011,05,08,13,55,13.80
2011,05,08,13,56,13.80
2011,05,08,13,57,13.80
2011,05,08,13,58,13.90
2011,05,08,13,59,13.80
2011,05,08,14,00,13.80
2011,05,08,14,01,13.80
2011,05,08,14,02,13.90
2011,05,08,14,03,13.90
2011,05,08,14,04,13.90
2011,05,08,14,05,14.00
2011,05,08,14,06,14.10
2011,05,08,14,07,14.20
2011,05,08,14,08,14.20
2011,05,08,14,09,14.30
2011,05,08,14,10,14.20
2011,05,08,14,11,14.20
2011,05,08,14,12,14.20
2011,05,08,14,13,14.20
2011,05,08,14,14,14.10
2011,05,08,14,15,14.00
2011,05,08,14,16,14.00
2011,05,08,14,17,13.90
2011,05,08,14,18,13.90
2011,05,08,14,19,13.80
2011,05,08,14,20,13.80
2011,05,08,14,21,13.80
2011,05,08,14,22,13.70
2011,05,08,14,23,13.70
2011,05,08,14,24,13.70
2011,05,08,14,25,13.70
2011,05,08,14,26,13.70
2011,05,08,14,27,13.80
2011,05,08,14,28,13.80
2011,05,08,14,29,13.80
2011,05,08,14,30,13.80
2011,05,08,14,31,13.80
2011,05,08,14,32,13.70
2011,05,08,14,33,13.60
2011,05,08,14,34,13.60
2011,05,08,14,35,13.60
2011,05,08,14,36,13.60
2011,05,08,14,37,13.60
2011,05,08,14,38,13.60
2011,05,08,14,39,13.60
2011,05,08,14,40,13.60
2011,05,08,14,41,13.60
2011,05,08,14,42,13.60
2011,05,08,14,43,13.50
2011,05,08,14,44,13.60
2011,05,08,14,45,13.60
2011,05,08,14,46,13.70
2011,05,08,14,47,13.80
2011,05,08,14,48,13.80
2011,05,08,14,49,13.90
2011,05,08,14,50,13.90
2011,05,08,14,51,13.90
2011,05,08,14,52,13.90
2011,05,08,14,53,13.90
2011,05,08,14,54,14.00
2011,05,08,14,55,14.10
2011,05,08,14,56,14.10
2011,05,08,14,57,14.10
2011,05,08,14,58,14.20
2011,05,08,14,59,14.20
2011,05,08,15,00,14.20
2011,05,08,15,01,14.20
2011,05,08,15,02,14.20
2011,05,08,15,03,14.20
2011,05,08,15,04,14.10
2011,05,08,15,05,14.00
2011,05,08,15,06,13.90
2011,05,08,15,07,13.80
2011,05,08,15,08,13.70
2011,05,08,15,09,13.70
2011,05,08,15,10,13.60
2011,05,08,15,11,13.60
2011,05,08,15,12,13.70
2011,05,08,15,13,13.80
2011,05,08,15,14,13.80
2011,05,08,15,15,13.80
2011,05,08,15,16,13.90
2011,05,08,15,17,14.00
2011,05,08,15,18,14.00
2011,05,08,15,19,14.00
2011,05,08,15,20,14.00
2011,05,08,15,21,13.90
2011,05,08,15,22,13.90
2011,05,08,15,23,13.90
2011,05,08,15,24,14.00
2011,05,08,15,25,14.10
2011,05,08,15,26,14.30
2011,05,08,15,27,14.40
2011,05,08,15,28,14.40
2011,05,08,15,29,14.40
2011,05,08,15,30,14.40
2011,05,08,15,31,14.40
2011,05,08,15,32,14.40
2011,05,08,15,33,14.40
2011,05,08,15,34,14.40
2011,05,08,15,35,14.50
2011,05,08,15,36,14.50
2011,05,08,15,37,14.50
2011,05,08,15,38,14.60
2011,05,08,15,39,14.70
2011,05,08,15,40,14.90
2011,05,08,15,41,14.80
2011,05,08,15,42,14.70
2011,05,08,15,43,14.50
2011,05,08,15,44,14.40
2011,05,08,15,45,14.30
2011,05,08,15,46,14.30
2011,05,08,15,47,14.40
2011,05,08,15,48,14.40
2011,05,08,15,49,14.40
2011,05,08,15,50,14.30
2011,05,08,15,51,14.30
2011,05,08,15,52,14.30
2011,05,08,15,53,14.40
2011,05,08,15,54,14.30
2011,05,08,15,55,14.30
2011,05,08,15,56,14.30
2011,05,08,15,57,14.20
2011,05,08,15,58,14.10
2011,05,08,15,59,14.00
2011,05,08,16,00,13.90
2011,05,08,16,01,13.90
2011,05,08,16,02,13.90
2011,05,08,16,03,14.00
2011,05,08,16,04,14.00
2011,05,08,16,05,14.10
2011,05,08,16,06,14.10
2011,05,08,16,07,14.20
2011,05,08,16,08,14.20
2011,05,08,16,09,14.10
2011,05,08,16,10,14.10
2011,05,08,16,11,14.20
2011,05,08,16,12,14.30
2011,05,08,16,13,14.30
2011,05,08,16,14,14.30
2011,05,08,16,15,14.30
2011,05,08,16,16,14.30
2011,05,08,16,17,14.30
2011,05,08,16,18,14.20
2011,05,08,16,19,14.10
2011,05,08,16,20,14.00
2011,05,08,16,21,14.00
2011,05,08,16,22,13.90
2011,05,08,16,23,13.80
2011,05,08,16,24,13.80
2011,05,08,16,25,13.80
2011,05,08,16,26,13.70
2011,05,08,16,27,13.70
2011,05,08,16,28,13.60
2011,05,08,16,29,13.50
2011,05,08,16,30,13.50
2011,05,08,16,31,13.50
2011,05,08,16,32,13.40
2011,05,08,16,33,13.50
2011,05,08,16,34,13.50
2011,05,08,16,35,13.60
2011,05,08,16,36,13.60
2011,05,08,16,37,13.70
2011,05,08,16,38,13.80
2011,05,08,16,39,13.80
2011,05,08,16,40,13.90
2011,05,08,16,41,13.90
2011,05,08,16,42,14.00
2011,05,08,16,43,14.00
2011,05,08,16,44,14.00
2011,05,08,16,45,14.00
2011,05,08,16,46,13.90
2011,05,08,16,47,14.00
2011,05,08,16,48,14.00
2011,05,08,16,49,14.10
2011,05,08,16,50,14.20
2011,05,08,16,51,14.30
2011,05,08,16,52,14.40
2011,05,08,16,53,14.40
2011,05,08,16,54,14.40
2011,05,08,16,55,14.40
2011,05,08,16,56,14.40
2011,05,08,16,57,14.30
2011,05,08,16,58,14.30
2011,05,08,16,59,14.30
2011,05,08,17,00,14.20
2011,05,08,17,01,14.20
2011,05,08,17,02,14.20
2011,05,08,17,03,14.20
2011,05,08,17,04,14.20
2011,05,08,17,05,14.10
2011,05,08,17,06,14.10
2011,05,08,17,07,14.20
2011,05,08,17,08,14.10
2011,05,08,17,09,14.10
2011,05,08,17,10,14.10
2011,05,08,17,11,14.10
2011,05,08,17,12,14.00
2011,05,08,17,13,14.00
2011,05,08,17,14,13.90
2011,05,08,17,15,13.80
2011,05,08,17,16,13.80
2011,05,08,17,17,13.90
2011,05,08,17,18,13.90
2011,05,08,17,19,13.90
2011,05,08,17,20,13.90
2011,05,08,17,21,14.00
2011,05,08,17,22,14.00
2011,05,08,17,23,14.10
2011,05,08,17,24,14.10
2011,05,08,17,25,14.00
2011,05,08,17,26,13.90
2011,05,08,17,27,13.80
2011,05,08,17,28,13.80
2011,05,08,17,29,13.80
2011,05,08,17,30,13.70
2011,05,08,17,31,13.70
2011,05,08,17,32,13.70
2011,05,08,17,33,13.70
2011,05,08,17,34,13.70
2011,05,08,17,35,13.60
2011,05,08,17,36,13.60
2011,05,08,17,37,13.70
2011,05,08,17,38,13.70
2011,05,08,17,39,13.70
2011,05,08,17,40,13.60
2011,05,08,17,41,13.60
2011,05,08,17,42,13.60
2011,05,08,17,43,13.50
2011,05,08,17,44,13.40
2011,05,08,17,45,13.40
2011,05,08,17,46,13.40
2011,05,08,17,47,13.40
2011,05,08,17,48,13.40
2011,05,08,17,49,13.40
2011,05,08,17,50,13.40
2011,05,08,17,51,13.40
2011,05,08,17,52,13.40
2011,05,08,17,53,13.40
2011,05,08,17,54,13.40
2011,05,08,17,55,13.50
2011,05,08,17,56,13.50
2011,05,08,17,57,13.50
2011,05,08,17,58,13.50
2011,05,08,17,59,13.50
2011,05,08,18,00,13.50
2011,05,08,18,01,13.40
2011,05,08,18,02,13.40
2011,05,08,18,03,13.40
2011,05,08,18,04,13.40
2011,05,08,18,05,13.40
2011,05,08,18,06,13.40
2011,05,08,18,07,13.40
2011,05,08,18,08,13.40
2011,05,08,18,09,13.40
2011,05,08,18,10,13.40
2011,05,08,18,11,13.40
2011,05,08,18,12,13.40
2011,05,08,18,13,13.40
2011,05,08,18,14,13.40
2011,05,08,18,15,13.40
2011,05,08,18,16,13.30
2011,05,08,18,17,13.30
2011,05,08,18,18,13.30
2011,05,08,18,19,13.30
2011,05,08,18,20,13.30
2011,05,08,18,21,13.30
2011,05,08,18,22,13.30
2011,05,08,18,23,13.30
2011,05,08,18,24,13.30
2011,05,08,18,25,13.30
2011,05,08,18,26,13.30
2011,05,08,18,27,13.30
2011,05,08,18,28,13.30
2011,05,08,18,29,13.30
2011,05,08,18,30,13.30
2011,05,08,18,31,13.30
2011,05,08,18,32,13.30
2011,05,08,18,33,13.30
2011,05,08,18,34,13.30
2011,05,08,18,35,13.30
2011,05,08,18,36,13.30
2011,05,08,18,37,13.30
2011,05,08,18,38,13.20
2011,05,08,18,39,13.20
2011,05,08,18,40,13.20
2011,05,08,18,41,13.20
2011,05,08,18,42,13.20
2011,05,08,18,43,13.20
2011,05,08,18,44,13.20
2011,05,08,18,45,13.20
2011,05,08,18,46,13.20
2011,05,08,18,47,13.20
2011,05,08,18,48,13.20
2011,05,08,18,49,13.20
2011,05,08,18,50,13.20
2011,05,08,18,51,13.20
2011,05,08,18,52,13.20
2011,05,08,18,53,13.20
2011,05,08,18,54,13.20
2011,05,08,18,55,13.20
2011,05,08,18,56,13.20
2011,05,08,18,57,13.20
2011,05,08,18,58,13.20
2011,05,08,18,59,13.20
2011,05,08,19,00,13.20
2011,05,08,19,01,13.20
2011,05,08,19,02,13.20
2011,05,08,19,03,13.20
2011,05,08,19,04,13.20
2011,05,08,19,05,13.10
2011,05,08,19,06,13.10
2011,05,08,19,07,13.00
2011,05,08,19,08,13.00
2011,05,08,19,09,13.00
2011,05,08,19,10,12.90
2011,05,08,19,11,12.90
2011,05,08,19,12,12.90
2011,05,08,19,13,12.90
2011,05,08,19,14,12.90
2011,05,08,19,15,12.90
2011,05,08,19,16,12.90
2011,05,08,19,17,12.90
2011,05,08,19,18,12.90
2011,05,08,19,19,12.90
2011,05,08,19,20,12.90
2011,05,08,19,21,12.90
2011,05,08,19,22,12.90
2011,05,08,19,23,12.90
2011,05,08,19,24,12.90
2011,05,08,19,25,12.90
2011,05,08,19,26,12.90
2011,05,08,19,27,12.90
2011,05,08,19,28,12.90
2011,05,08,19,29,12.90
2011,05,08,19,30,12.90
2011,05,08,19,31,12.90
2011,05,08,19,32,12.90
2011,05,08,19,33,12.90
2011,05,08,19,34,12.90
2011,05,08,19,35,12.90
2011,05,08,19,36,12.80
2011,05,08,19,37,12.80
2011,05,08,19,38,12.80
2011,05,08,19,39,12.80
2011,05,08,19,40,12.80
2011,05,08,19,41,12.80
2011,05,08,19,42,12.80
2011,05,08,19,43,12.80
2011,05,08,19,44,12.80
2011,05,08,19,45,12.70
2011,05,08,19,46,12.70
2011,05,08,19,47,12.70
2011,05,08,19,48,12.70
2011,05,08,19,49,12.70
2011,05,08,19,50,12.70
2011,05,08,19,51,12.70
2011,05,08,19,52,12.60
2011,05,08,19,53,12.60
2011,05,08,19,54,12.60
2011,05,08,19,55,12.60
2011,05,08,19,56,12.60
2011,05,08,19,57,12.50
2011,05,08,19,58,12.50
2011,05,08,19,59,12.50
2011,05,08,20,00,12.50
2011,05,08,20,01,12.40
2011,05,08,20,02,12.40
2011,05,08,20,03,12.40
2011,05,08,20,04,12.40
2011,05,08,20,05,12.40
2011,05,08,20,06,12.40
2011,05,08,20,07,12.30
2011,05,08,20,08,12.30
2011,05,08,20,09,12.30
2011,05,08,20,10,12.30
2011,05,08,20,11,12.30
2011,05,08,20,12,12.20
2011,05,08,20,13,12.20
2011,05,08,20,14,12.20
2011,05,08,20,15,12.20
2011,05,08,20,16,12.20
2011,05,08,20,17,12.20
2011,05,08,20,18,12.20
2011,05,08,20,19,12.10
2011,05,08,20,20,12.10
2011,05,08,20,21,12.00
2011,05,08,20,22,12.00
2011,05,08,20,23,12.00
2011,05,08,20,24,11.90
2011,05,08,20,25,11.90
2011,05,08,20,26,11.90
2011,05,08,20,27,11.90
2011,05,08,20,28,11.90
2011,05,08,20,29,11.90
2011,05,08,20,30,11.90
2011,05,08,20,31,11.90
2011,05,08,20,32,11.80
2011,05,08,20,33,11.80
2011,05,08,20,34,11.80
2011,05,08,20,35,11.80
2011,05,08,20,36,11.80
2011,05,08,20,37,11.80
2011,05,08,20,38,11.80
2011,05,08,20,39,11.70
2011,05,08,20,40,11.70
2011,05,08,20,41,11.70
2011,05,08,20,42,11.70
2011,05,08,20,43,11.60
2011,05,08,20,44,11.60
2011,05,08,20,45,11.60
2011,05,08,20,46,11.60
2011,05,08,20,47,11.60
2011,05,08,20,48,11.60
2011,05,08,20,49,11.60
2011,05,08,20,50,11.50
2011,05,08,20,51,11.50
2011,05,08,20,52,11.50
2011,05,08,20,53,11.40
2011,05,08,20,54,11.40
2011,05,08,20,55,11.40
2011,05,08,20,56,11.40
2011,05,08,20,57,11.40
2011,05,08,20,58,11.30
2011,05,08,20,59,11.30
2011,05,08,21,00,11.30
2011,05,08,21,01,11.30
2011,05,08,21,02,11.30
2011,05,08,21,03,11.30
2011,05,08,21,04,11.30
2011,05,08,21,05,11.30
2011,05,08,21,06,11.30
2011,05,08,21,07,11.30
2011,05,08,21,08,11.30
2011,05,08,21,09,11.30
2011,05,08,21,10,11.30
2011,05,08,21,11,11.20
2011,05,08,21,12,11.30
2011,05,08,21,13,11.30
2011,05,08,21,14,11.20
2011,05,08,21,15,11.20
2011,05,08,21,16,11.20
2011,05,08,21,17,11.20
2011,05,08,21,18,11.20
2011,05,08,21,19,11.20
2011,05,08,21,20,11.20
2011,05,08,21,21,11.20
2011,05,08,21,22,11.20
2011,05,08,21,23,11.20
2011,05,08,21,24,11.20
2011,05,08,21,25,11.20
2011,05,08,21,26,11.20
2011,05,08,21,27,11.20
2011,05,08,21,28,11.30
2011,05,08,21,29,11.30
2011,05,08,21,30,11.40
2011,05,08,21,31,11.40
2011,05,08,21,32,11.40
2011,05,08,21,33,11.50
2011,05,08,21,34,11.50
2011,05,08,21,35,11.60
2011,05,08,21,36,11.60
2011,05,08,21,37,11.60
2011,05,08,21,38,11.60
2011,05,08,21,39,11.60
2011,05,08,21,40,11.60
2011,05,08,21,41,11.60
2011,05,08,21,42,11.60
2011,05,08,21,43,11.60
2011,05,08,21,44,11.60
2011,05,08,21,45,11.60
2011,05,08,21,46,11.60
2011,05,08,21,47,11.60
2011,05,08,21,48,11.60
2011,05,08,21,49,11.60
2011,05,08,21,50,11.60
2011,05,08,21,51,11.60
2011,05,08,21,52,11.60
2011,05,08,21,53,11.60
2011,05,08,21,54,11.60
2011,05,08,21,55,11.60
2011,05,08,21,56,11.60
2011,05,08,21,57,11.60
2011,05,08,21,58,11.60
2011,05,08,21,59,11.60
2011,05,08,22,00,11.60
2011,05,08,22,01,11.60
2011,05,08,22,02,11.60
2011,05,08,22,03,11.60
2011,05,08,22,04,11.60
2011,05,08,22,05,11.60
2011,05,08,22,06,11.70
2011,05,08,22,07,11.70
2011,05,08,22,08,11.70
2011,05,08,22,09,11.70
2011,05,08,22,10,11.70
2011,05,08,22,11,11.70
2011,05,08,22,12,11.70
2011,05,08,22,13,11.70
2011,05,08,22,14,11.70
2011,05,08,22,15,11.70
2011,05,08,22,16,11.70
2011,05,08,22,17,11.70
2011,05,08,22,18,11.70
2011,05,08,22,19,11.70
2011,05,08,22,20,11.70
2011,05,08,22,21,11.70
2011,05,08,22,22,11.70
2011,05,08,22,23,11.70
2011,05,08,22,24,11.70
2011,05,08,22,25,11.70
2011,05,08,22,26,11.70
2011,05,08,22,27,11.70
2011,05,08,22,28,11.70
2011,05,08,22,29,11.70
2011,05,08,22,30,11.70
2011,05,08,22,31,11.70
2011,05,08,22,32,11.70
2011,05,08,22,33,11.70
2011,05,08,22,34,11.70
2011,05,08,22,35,11.70
2011,05,08,22,36,11.70
2011,05,08,22,37,11.70
2011,05,08,22,38,11.70
2011,05,08,22,39,11.70
2011,05,08,22,40,11.70